HAWK-A

Last updated on Sun Jun 21 2026 00:03:42 GMT+0000 (Coordinated Universal Time)

1 43765U 18099H 26170.71081534 .00004986 00000+0 20173-3 0 9999 2 43765 97.3908 222.9140 0033056 276.5231 83.2244 15.24666904413482
UTC large
Height (km)
Speed (km/s)
/
Latitude / Longitude
Inclination (degrees)
Orbital Period (minutes)
Azimuth
Elevation
Range (km)
Doppler Factor

Next 0 passes for location: London (51.5072 / 0.1276)

No passes found over London.
HAWK-A